www.pogodaiklimat.ru
ПОГОДА в Лодзе

Архив погоды в Лодзе (Польша)

Время
(UTC), дата
16 13.05
17 13.05
18 13.05
19 13.05
20 13.05
21 13.05
22 13.05
23 13.05
00 14.05
01 14.05
02 14.05
03 14.05
04 14.05
05 14.05
06 14.05
07 14.05
08 14.05
09 14.05
10 14.05
11 14.05
12 14.05
13 14.05
14 14.05
15 14.05
16 14.05
17 14.05
18 14.05
19 14.05
20 14.05
21 14.05
22 14.05
23 14.05
00 15.05
01 15.05
02 15.05
03 15.05
04 15.05
05 15.05
06 15.05
07 15.05
08 15.05
09 15.05
10 15.05
11 15.05
12 15.05
13 15.05
14 15.05
15 15.05
16 15.05
17 15.05
18 15.05
19 15.05
20 15.05
21 15.05
22 15.05
23 15.05
00 16.05
01 16.05
02 16.05
03 16.05
04 16.05
05 16.05
06 16.05
07 16.05
08 16.05
09 16.05
10 16.05
11 16.05
12 16.05
13 16.05
14 16.05
15 16.05
16 16.05
17 16.05
18 16.05
19 16.05
20 16.05
21 16.05
22 16.05
23 16.05
00 17.05
01 17.05
02 17.05
03 17.05
04 17.05
05 17.05
06 17.05
07 17.05
08 17.05
09 17.05
10 17.05
11 17.05
12 17.05
13 17.05
14 17.05
15 17.05
16 17.05
17 17.05
18 17.05
19 17.05
20 17.05
21 17.05
22 17.05
23 17.05
00 18.05
01 18.05
02 18.05
03 18.05
04 18.05
05 18.05
06 18.05
07 18.05
08 18.05
09 18.05
10 18.05
11 18.05
12 18.05
13 18.05
14 18.05
15 18.05
16 18.05
17 18.05
18 18.05
19 18.05
20 18.05
21 18.05
22 18.05
23 18.05
00 19.05
01 19.05
02 19.05
03 19.05
04 19.05
05 19.05
06 19.05
07 19.05
08 19.05
09 19.05
10 19.05
11 19.05
12 19.05
13 19.05
14 19.05
15 19.05
16 19.05
17 19.05
18 19.05
19 19.05
20 19.05
21 19.05
22 19.05
23 19.05
00 20.05
01 20.05
02 20.05
03 20.05
04 20.05
05 20.05
06 20.05
07 20.05
08 20.05
09 20.05
10 20.05
11 20.05
12 20.05
13 20.05
14 20.05
15 20.05
16 20.05
17 20.05
Ветер
(напр.,м/с)
Видим. Явления Облачность Т
(С)
Тd
(С)
f
(%)
Тe
(С)
Тes
(С)
Комфортность P
(гПа)
Po
(гПа)
Тmin
(С)
Tmax
(С)
R
(мм)
R24
(мм)
S
(см)
СВ 3 {10} 50 км 1/0
[Ci fib]
+19.8 -1.4 24 +20 +23 1017.6 996.3
В 4 50 км 1/0
[Ci fib]
+19.2 -0.3 27 +19 +20 1017.5 996.2
СВ 3 {10} 50 км 3/0
[Ci fib]
+16.2 -0.5 32 +16 +16 1017.9 996.3 +11.6 +20.7
В 2 45 км 3/0
[Ci fib]
+12.9 +0.3 42 +12 +12 1018.3 996.5
СВ 1 40 км 1/0
[Ci fib]
+10.1 +0.4 51 +10 +10 1018.4 996.4
СВ 1 35 км 1/0
[Ci fib]
+8.1 +0.8 60 +8 +8 1018.6 996.4
штиль 0 35 км 1/0
[Ci fib]
+5.6 +1.1 73 +5 +5 1018.9 996.5
СВ 1 30 км 1/0
[Ci fib]
+5.1 +1.0 75 +4 +4 1018.9 996.5
СВ 1 30 км 1/0
[Ci fib]
+3.8 +1.0 82 +2 +2 1018.8 996.3
штиль 0 35 км ясно +3.3 +0.9 84 +2 +2 1018.8 996.2
штиль 0 35 км 1/0
[Ci fib]
+2.5 +0.9 89 +1 +1 1018.9 996.3
штиль 0 35 км 1/0
[Ci fib]
+2.0 +0.7 91 +1 +1 1019.1 996.4
СВ 1 40 км 1/0
[Ci fib]
+4.8 +2.3 84 +4 +4 1019.0 996.5
В 1 40 км 1/0
[Ci fib]
+11.6 +3.4 57 +12 +14 1018.4 996.5
В 2 45 км 1/0
[Ci fib]
+15.9 +2.3 40 +16 +21 1018.2 996.6 +1.8 +16.3
В 3 50 км 1/0
[Ci fib]
+17.8 +1.7 34 +18 +24 1018.1 996.7
В 4 50 км 1/0
[Ci sp]
+18.9 +1.8 32 +19 +26 1018.0 996.6
В 4 50 км 3/1 2000 м
[Cu hum Ci sp]
+19.5 +1.4 30 +20 +28 1017.7 996.4
В 5 {8} 35 км 3/1 2000 м
[Cu hum Ci sp]
+20.4 +1.3 28 +21 +28 комфорт 1017.5 996.3
В 3 {9} 50 км 3/3 2000 м
[Cu hum Ci sp]
+21.1 +1.9 28 +21 +30 комфорт 1017.1 995.9
СВ 5 {9} 50 км 4/4 2000 м
[Cu hum]
+21.6 +1.8 27 +21 +26 комфорт 1016.7 995.6
В 4 {9} 50 км 5/5 2000 м
[Cu hum]
+21.2 +2.4 29 +21 +25 комфорт 1016.5 995.3
В 5 {11} 50 км 6/6 2000 м
[Cu hum]
+21.4 +2.6 29 +21 +23 комфорт 1016.1 995.0
В 4 {11} 50 км 6/6 2000 м
[Cu hum]
+20.8 +2.1 29 +21 +23 комфорт 1016.1 994.9
В 5 50 км 6/6 2000 м
[Cu hum]
+20.9 +2.7 30 +21 +22 комфорт 1015.9 994.7
СВ 6 50 км 5/5 2000 м
[Sc diur, vesp]
+20.5 +2.3 30 +21 +21 комфорт 1015.9 994.7
В 4 {11} 50 км 3/1 2000 м
[Sc diur, vesp Ac trans]
+19.3 +2.6 33 +20 +20 1016.1 994.8 +15.8 +22.9
В 3 50 км 3/1 2000 м
[Sc diur, vesp Ac trans]
+17.5 +3.0 38 +18 +18 1016.8 995.4
В 3 50 км 1/0
[Ac trans]
+15.9 +3.0 42 +16 +16 1017.5 995.9
В 3 50 км ясно +14.5 +3.3 47 +14 +14 1017.9 996.2
В 4 50 км ясно +13.5 +3.6 51 +12 +12 1018.2 996.4
В 3 50 км ясно +12.5 +3.7 55 +11 +11 1018.6 996.7
В 3 50 км ясно +11.3 +3.6 59 +10 +10 1018.7 996.8
В 3 50 км ясно +10.6 +3.4 61 +9 +9 1018.8 996.8
В 4 50 км 1/0
[Ci fib]
+10.1 +3.1 62 +8 +8 1018.8 996.8
В 3 45 км 4/0
[Ci]
+9.4 +2.7 63 +7 +7 1019.1 997.0
В 4 40 км 3/0
[Ci fib]
+10.5 +2.3 57 +8 +9 1019.2 997.2
В 4 45 км 1/0
[Ci fib]
+12.0 +2.2 51 +10 +12 1019.1 997.2
В 4 40 км 1/0
[Ci fib]
+14.0 +1.6 43 +13 +16 1019.2 997.4 +9.4 +19.3
В 6-11 {11} 50 км 1/0
[Ci fib]
+15.6 +0.6 36 +14 +17 1019.1 997.5
В 6-12 {12} 50 км 1/0
[Ci fib]
+16.7 +0.7 34 +16 +20 1019.1 997.6
В 6-11 {12} 50 км 1/0
[Ci fib]
+17.6 +0.7 32 +17 +22 1019.2 997.7
В 6-11 {11} 50 км 1/0
[Ci fib]
+18.6 +1.1 31 +18 +24 1018.9 997.5
В 6-11 {11} 50 км 1/0
[Ci fib]
+19.8 +1.2 29 +20 +26 1018.4 997.1
В 7-12 {12} 50 км 1/0
[Ci fib]
+20.2 +0.1 26 +20 +24 1018.3 997.0
В 6 {12} 50 км 1/0
[Ci fib]
+20.4 +0.2 26 +20 +25 1017.8 996.5
В 6 {12} 50 км 1/0
[Ci fib]
+21.0 +1.3 27 +21 +25 комфорт 1017.6 996.4
В 7 {12} 50 км 1/0
[Ci fib]
+20.3 +0.1 26 +20 +22 1017.4 996.1
В 6 {11} 50 км 1/0
[Ci fib]
+20.0 +0.9 28 +20 +21 1017.3 996.0
В 5 {11} 50 км 1/0
[Ci fib]
+19.3 +1.7 31 +19 +20 1017.3 996.0
В 6-11 {12} 50 км 3/0
[Ci fib]
+18.0 +1.5 33 +17 +17 1017.7 996.3 +14.0 +21.1
В 4 50 км 3/0
[Ci fib]
+16.3 +2.3 39 +16 +16 1018.2 996.6
В 4 50 км 1/0
[Ci fib]
+14.8 +2.0 42 +14 +14 1018.6 996.9
В 4 50 км 1/0
[Ci fib]
+14.1 +2.0 44 +13 +13 1018.9 997.2
В 4 45 км 1/0
[Ci fib]
+13.3 +1.9 46 +12 +12 1019.2 997.4
В 4 45 км 1/0
[Ci fib]
+12.4 +1.7 48 +11 +11 1019.2 997.3
В 4 45 км ясно +11.6 +1.5 50 +10 +10 1019.3 997.4
В 6 50 км ясно +11.3 +1.5 51 +9 +9 1019.1 997.1
В 5 50 км 1/0
[Ci fib]
+10.3 +1.4 54 +8 +8 1018.7 996.7
В 5 40 км 5/0
[Ci sp]
+9.6 +1.5 57 +7 +7 1018.9 996.8
В 5 45 км 6/0
[Ac trans Cs]
+9.5 +1.6 58 +7 +7 1019.1 997.0
В 4 {10} 35 км 8/0
[Ac trans Cs]
+10.5 +1.8 55 +8 +10 1019.3 997.3
В 5-10 {10} 40 км 9/0
[Ac trans Cs]
+13.2 +2.7 49 +11 +13 1019.1 997.3 +9.3 +18.0
В 6-11 {11} 35 км 9/0
[Ac trans Cs]
+15.7 +2.8 42 +14 +17 1018.9 997.3
В 5-11 {13} 50 км 9/0
[Ac trans Cs]
+17.9 +3.4 38 +18 +22 1018.9 997.4
В 5-10 {13} 40 км 9/0
[Ac und Cs]
+18.5 +3.5 37 +18 +23 1018.5 997.1
В 6 {12} 35 км 9/0
[Ac trans]
+20.0 +3.6 34 +20 +24 1018.2 996.9
В 7-12 {13} 40 км 9/1 1500 м
[Cu hum Ac trans Cs]
+20.9 +3.1 31 +21 +23 комфорт 1017.7 996.5
В 6-11 {13} 50 км 8/3 2000 м
[Cu hum Cs]
+21.5 +3.2 30 +22 +25 комфорт 1017.6 996.4
В 5-12 {12} 45 км 5/4 2000 м
[Cu med, cong Ci sp]
+22.0 +3.6 30 +22 +26 комфорт 1017.0 995.9
В 6-11 {12} 35 км 5/3 2000 м
[Cu hum Ci sp]
+22.0 +2.1 27 +22 +24 комфорт 1016.6 995.5
В 5-11 {12} 45 км 3/1 2000 м
[Cu hum Ci sp]
+21.7 +1.9 27 +21 +24 комфорт 1016.6 995.5
В 6-13 {13} 35 км 1/1 2000 м
[Cu hum Ci sp]
+21.3 +1.5 27 +21 +22 комфорт 1016.5 995.3
В 5 {11} 45 км 1/1 2000 м
[Cu hum Ci sp]
+20.6 +1.9 29 +21 +21 комфорт 1016.4 995.2
В 4 {13} 45 км 1/0
[Ci fib]
+19.5 +1.4 30 +20 +20 1016.7 995.4 +13.2 +22.6
В 5 45 км 1/0
[Ci fib]
+17.8 +2.1 35 +17 +17 1017.3 995.9
В 6 {10} 45 км ясно +16.7 +1.1 35 +16 +16 1017.7 996.2
В 5 {10} 45 км ясно +15.6 +0.6 36 +15 +15 1017.8 996.2
В 5 50 км ясно +14.4 +0.6 39 +13 +13 1018.1 996.4
В 4 50 км ясно +13.4 +0.4 41 +12 +12 1018.1 996.3
В 4 {10} 50 км ясно +12.9 +0.3 42 +11 +11 1018.1 996.3
В 5 50 км ясно +12.3 +0.4 44 +10 +10 1018.0 996.1
В 6 {11} 45 км ясно +11.7 +0.1 45 +9 +9 1017.4 995.5
В 6 {11} 45 км ясно +11.0 +0.1 47 +8 +8 1017.3 995.4
В 6-11 {11} 45 км ясно +11.1 +0.2 47 +8 +9 1017.3 995.4
В 7 35 км ясно +12.6 +1.0 45 +10 +11 1016.7 994.9
В 6 {13} 45 км ясно +14.4 +1.6 42 +13 +15 1016.6 994.9 +10.9 +19.5
В 7 45 км ясно +16.4 +2.8 40 +15 +17 1016.1 994.6
В 6-11 {11} 45 км ясно +18.4 +3.4 37 +18 +23 1016.1 994.7
В 6-11 {11} 40 км ясно +19.6 +3.7 35 +20 +25 1016.1 994.8
В 7-13 {13} 50 км 1/0
[Ci sp]
+20.0 +3.6 34 +20 +24 1015.6 994.4
В 7-15 {15} 50 км 1/0
[Ci sp]
+20.7 +2.5 30 +21 +25 комфорт 1015.1 993.9
В 7-13 {16} 50 км 1/0
[Ci sp]
+21.7 +1.9 27 +21 +26 комфорт 1014.4 993.3
В 6-12 {14} 50 км 1/0
[Ci sp]
+22.2 +0.7 24 +22 +27 комфорт 1013.6 992.6
В 7-13 {14} 50 км 3/0
[Ci sp]
+22.7 +2.2 26 +22 +25 комфорт 1013.2 992.2
В 7-13 {14} 50 км 5/0
[Cs]
+21.3 +2.5 29 +21 +23 комфорт 1013.1 992.0
В 5-12 {13} 50 км 6/1 2000 м
[Sc Cs]
+21.3 +3.0 30 +21 +23 комфорт 1013.3 992.2
В 6 {13} 50 км 8/1 2000 м
[Sc Ac und Cs]
+20.2 +2.5 31 +20 +21 1013.6 992.4
В 4 {14} 40 км 8/1 2000 м
[Sc Ac trans Cs]
+19.3 +2.6 33 +20 +20 1013.8 992.6 +14.4 +22.9
В 3 40 км 8/1 2000 м
[Sc Ac trans Cs]
+17.9 +2.2 35 +18 +18 1014.1 992.7
В 2 40 км 8/0
[Ac trans Cs]
+15.2 +3.0 44 +15 +15 1014.3 992.7
В 2 40 км 8/0
[Ac trans Cs]
+13.4 +2.6 48 +13 +13 1014.4 992.7
В 2 35 км 9/0
[Ac und Cs]
+11.4 +3.4 58 +11 +11 1014.4 992.6
В 2 40 км 9/0
[Ac und]
+14.0 +4.0 51 +14 +14 1014.0 992.4
В 1 40 км 9/9 2000 м
[Sc]
+13.9 +4.2 52 +14 +14 1013.9 992.3
В 1 40 км 9/9 2000 м
[Sc]
+12.8 +4.7 58 +13 +13 1013.8 992.1
В 2 40 км 6/5 2000 м
[Sc Ac trans]
+12.5 +4.7 59 +12 +12 1013.9 992.1
В 1 40 км 5/1 2000 м
[Sc Ac trans]
+11.3 +4.7 64 +11 +11 1014.0 992.2
В 1 40 км 8/0
[Ac und]
+11.9 +6.6 70 +12 +12 1014.2 992.4
ЮВ 2 30 км 4/0
[Ac trans]
+14.0 +8.2 68 +14 +15 1014.2 992.6
В 2 30 км 3/0
[Ac trans Cc]
+15.9 +8.4 61 +16 +20 1014.3 992.8 +10.8 +19.3
В 2 40 км 3/0
[Ac trans Ci fib]
+16.8 +8.2 57 +17 +24 1014.4 993.0
В 2 35 км 5/4 1000 м
[Cu hum Ac trans Ci sp]
+18.2 +9.0 55 +19 +25 1014.3 993.0
В 2 17 км 6/6 1000 м
[Cu med, cong]
+19.4 +9.3 52 +21 +27 комфорт 1014.5 993.2
В 3 50 км 6/5 1500 м
[Cu med, cong Ac trans Ci sp]
+19.9 +8.6 48 +21 +27 комфорт 1014.2 993.0
В 2 45 км 8/6 1000 м
[Cu Sc Ac trans Ci sp]
+20.5 +8.5 46 +22 +27 комфорт 1013.9 992.7
нст 3 50 км 8/6 1500 м
[Cu Sc Ac trans Ci sp]
+21.8 +8.0 41 +23 +27 комфорт 1013.7 992.6
В 3 40 км 6/5 1500 м
[Cu Sc Ac trans Ci sp]
+21.2 +8.8 45 +22 +27 комфорт 1013.4 992.3
В 2 50 км 9/6 1500 м
[Cb cap Ac trans Ci sp]
+22.0 +8.5 42 +23 +26 комфорт 1012.8 991.8
ЮВ 2 50 км 9/6 2000 м
[Cb cap Ac trans Ci sp]
+21.8 +8.0 41 +23 +24 комфорт 1012.6 991.6
4 {8} 40 км 6/1 1500 м
[Cb cap Ac cuf Ci ing]
+19.9 +10.3 54 +21 +23 комфорт 1012.7 991.5
3 50 км осадки на расстоянии 6/1 1500 м
[Cb cap Ac cuf Ci ing]
+19.4 +9.8 54 +21 +21 комфорт 1012.9 991.7
ЮЗ 5 {8} 50 км осадки на расстоянии 8/6 1500 м
[Cb calv Ac trans Ci fib]
+17.7 +8.5 55 +17 +17 1013.7 992.3 +15.9 +22.7
С 1 45 км 6/5 1500 м
[Cb calv Ac trans Ci sp]
+15.4 +8.8 65 +16 +16 1013.8 992.3
С 1 45 км 5/4 2000 м
[Sc diur, vesp Ac trans Ci sp]
+12.4 +9.4 82 +12 +12 1014.2 992.4
СВ 1 40 км 5/0
[Ac und Ci sp]
+10.9 +8.5 85 +11 +11 1014.1 992.2
С 1 35 км 6/0
[Ac und Ci sp]
+9.9 +8.3 90 +9 +9 1014.1 992.1
Ю 1 28 км 8/0
[Ac und Ci sp]
+10.4 +9.2 92 +10 +10 1014.0 992.1
З 1 35 км 8/0
[Ac trans Ci sp]
+12.6 +10.0 84 +13 +13 1013.7 992.0
СВ 1 30 км 8/0
[Ac und]
+12.3 +10.0 86 +12 +12 1013.0 991.3
Ю 2 27 км слаб. ливневой дождь 8/5 2000 м
[Cb cap Ac trans]
+12.5 +10.7 89 +12 +12 1013.0 991.3
В 1 26 км в посл. час ливневой дождь 8/5 600 м
[Cb cap Ac trans]
+12.5 +10.7 89 +12 +12 1012.7 991.0
В 2 26 км 9/0
[Ac und]
+12.6 +10.5 87 +12 +12 1013.3 991.6
В 2 27 км осадки на расстоянии 9/1 2000 м
[Cb cap Ac trans]
+13.6 +10.8 83 +13 +14 1013.2 991.5
ЮВ 1 30 км {ливн. дождь} 9/6 2000 м
[Sc Ac trans]
+15.6 +11.4 76 +16 +18 1013.2 991.7 +9.9 +17.7 0.1 0.1
В 3 40 км 9/0
[Ac trans Ci fib]
+19.8 +11.8 60 +22 +26 комфорт 1012.5 991.3
В 4 40 км 8/0
[Ac trans Ci sp]
+19.4 +11.2 59 +21 +26 комфорт 1012.7 991.5
В 4 40 км 9/1 1000 м
[Cb calv Ac trans Cs]
+21.4 +11.1 52 +23 +28 комфорт 1012.5 991.4
ЮВ 2 50 км 9/1 1000 м
[Cb calv Ac trans Cs]
+22.1 +10.6 48 +24 +32 комфорт 1012.0 991.0
Ю 3 {8} 50 км 9/5 1500 м
[Cb cap Ac trans Cs]
+22.7 +9.5 43 +24 +28 комфорт 1011.6 990.6
ЮЗ 3 {11} 12 км гроза, ливневой дождь 9/9 1000 м
[Cb cap]
+15.3 +13.1 87 +15 +16 1012.9 991.4 12
З 2 50 км в посл. час гроза 9/5 1000 м
[Cb cap Cs]
+20.6 +13.5 64 +24 +29 комфорт 1011.4 990.3
СВ 1 50 км 9/3 1500 м
[Cu med, cong Ac trans Cs]
+21.6 +12.4 56 +24 +28 комфорт 1011.0 990.0
В 5 {9} 50 км {гроза, ливн. дождь} 9/4 1000 м
[Cb cap Ac trans Cs]
+19.9 +12.4 62 +21 +23 комфорт 1011.3 990.1
ЮВ 4 50 км в посл. час гроза 9/5 1500 м
[Cb cap Ac cuf Cs]
+18.7 +10.8 60 +19 +20 1011.2 990.0
СВ 3 45 км в посл. час ливневой дождь 9/5 1000 м
[Cb cap Ac cuf Cs]
+16.1 +13.4 84 +16 +16 1011.0 989.6
Ю 1 {9} 35 км {гроза, ливн. дождь} 9/5 1500 м
[Cb cap Ac cuf Cs]
+15.2 +13.4 89 +16 +16 1011.1 989.6 +15.1 +23.8 12
З 3 23 км слаб. ливневой дождь 9/9 1500 м
[Cb cap]
+14.8 +13.3 91 +14 +14 1011.8 990.3
Ю 1 15 км слаб. ливневой дождь, в посл. час гроза 9/9 1500 м
[Cb cap]
+14.2 +13.4 95 +14 +14 1012.1 990.5
С 1 11 км слаб. ливневой дождь 9/9 1500 м
[Cb cap]
+14.1 +13.6 97 +14 +14 1012.2 990.6
С 3 12 км слаб. ливневой дождь 9/9 1500 м
[Cb cap]
+14.3 +13.8 97 +13 +13 1011.8 990.2
В 1 11 км в посл. час ливневой дождь 9/9 1500 м
[Sc]
+14.2 +13.6 96 +14 +14 1011.7 990.1
Ю 1 12 км в посл. час гроза {ливн. дождь} 9/9 1500 м
[Sc]
+14.0 +13.5 97 +14 +14 1011.9 990.3 3
СВ 1 11 км 9/9 1500 м
[Sc]
+13.5 +12.7 95 +14 +14 1011.8 990.2
С 1 1400 м дымка 8/8 1500 м
[Sc]
+12.9 +12.4 97 +13 +13 1011.8 990.1
штиль 0 100 м туман, небо видно 5/0
[Ac trans Ci fib]
+11.2 +10.7 97 +10 +10 1012.3 990.5
СВ 1 400 м туман, небо видно 4/0
[Ac trans Ci sp]
+11.3 +11.0 98 +11 +12 1012.5 990.7
З 1 3200 м в посл. час туман 9/9 150 м
[St]
+13.2 +13.0 99 +13 +14 1012.9 991.2
В 2 7000 м дымка {туман} 9/9 90 м
[St]
+14.6 +14.0 96 +14 +15 1013.2 991.6 +10.9 +15.2 3 15.5
В 2 14 км 6/4 180 м
[Cu hum Cs]
+16.6 +14.4 87 +17 +21 1013.1 991.7
Ю 1 11 км 8/5 210 м
[Cu med, cong Cs]
+16.6 +14.6 88 +17 +23 1013.2 991.8
Ю 2 25 км 8/5 300 м
[Cu med, cong Ac trans Cs]
+18.7 +14.4 76 +20 +25 1013.3 992.0
Ю 2 30 км 8/1 600 м
[Cb calv Cs]
+20.0 +13.2 65 +23 +35 комфорт 1013.2 992.0
ЮЗ 2 50 км 9/5 1000 м
[Cb cap Cs]
+21.3 +10.1 49 +23 +30 комфорт 1013.2 992.1
Ю 2 50 км 8/5 1000 м
[Cb cap Cs]
+22.3 +11.7 51 +25 +31 комфорт 1012.8 991.8
ЮВ 2 50 км 6/4 1000 м
[Cb cap Ci sp]
+22.3 +10.8 48 +24 +31 комфорт 1012.5 991.5
ЮВ 1 50 км 6/4 1000 м
[Cb cap Ci ing]
+21.8 +11.2 51 +24 +30 комфорт 1012.3 991.3
нст 1 50 км 6/5 1000 м
[Cb calv Ci ing]
+22.9 +11.0 47 +25 +29 комфорт 1012.2 991.2
1 50 км 6/3 1000 м
[Cb calv Ac cuf Ci ing]
+23.4 +10.4 44 +25 +28 комфорт 1012.0 991.1
1 50 км 8/4 1500 м
[Cb calv Ac cuf Ci ing]
+23.1 +10.8 46 +25 +26 комфорт 1012.0 991.1
Местоположение метеостанции Лодзь (Польша): широта 51.73 долгота 19.40 высота над уровнем моря 190 м.
В архиве по умолчанию представлена погода в Лодзе за последнюю неделю. Архивные данные за месяц целиком и за предыдущие месяцы, начиная с января 2011 года, Вы можете получить, выбрав интересующий диапазон дат из раскрывающегося списка и нажав кнопку "Найти!".
*Определитесь, кто Вы:
Внимание! Время в таблицах - всемирное. Для получения местного времени необходимо прибавить поправку, которая равна 1 ч.
Некоторые строки с данными для отдельных станций могут быть выделены курсивом. Это означает, что фактические данные отсутствуют по различным причинам, а приведенные значения являются расчетными модельными данными для данного пункта наблюдений.
Смотрите также архив погоды в соседних городах и на ближайших метеорологических станциях:
Партнеры нашего сайта:      
Пояснения к столбцам:
  • Ветер - указаны скорость ветра в м/с - средняя за 10 мин, порывы в срок и между сроками (в фигурных скобках) и направление, откуда дует ветер: С - северный,
  • СВ - северо-восточный, В - восточный, ЮВ - юго-восточный, Ю - южный, ЮЗ - юго-западный, З - западный, СЗ - северо-западный.
  • Видимость - горизонтальная дальность видимости в метрах или километрах. При видимости от 1 до 10 км при отсутствии осадков обычно наблюдается дымка, при ухудшении видимости до 1 км и менее - туман. В сухую погоду видимость может ухудшаться дымом, пылью или мглою.
  • Явления - указаны атмосферные явления, наблюдавшиеся в срок или в последний час перед сроком; фигурными скобками обозначены явления, наблюдавшиеся между сроками (за 1-3 часа до срока); квадратными скобками обозначены град или гололедные отложения с указанием их диаметра в мм.
  • Облачность - указаны через наклонную черту общая и нижняя облачность в баллах и высота нижней границы облаков в метрах; квадратными скобками обозначены формы облаков: Ci - перистые, Cs - перисто-слоистые, Cc - перисто-кучевые, Ac - высококучевые, As - высокослоистые, Sc - слоисто-кучевые, Ns - слоисто-дождевые, Cu - кучевые, Cb - кучево-дождевые. Подробнее классификацию облаков см. в Атласе облаков (PDF).
  • T - Температура воздуха - температура, измеренная на высоте 2 м над землей.
  • Td - Температура точки росы - температура, при понижении до которой содержащийся в воздухе водяной пар достигнет насыщения.
  • f - Относительная влажность воздуха - влажноcть воздуха, измеренная на высоте 2 м над землей.
  • Te - Эффективная температура - температура, которую ощущает одетый по сезону человек в тени. Характеристика душности погоды. При расчете учитывается влияние влажности воздуха и скорости ветра на теплоощущения человека.
  • Tes - Эффективная температура на солнце - температура, которую ощущает человек, с поправкой на солнечный нагрев. Характеристика знойности погоды. Зависит от высоты солнца над горизонтом, облачности и скорости ветра. Ночью, в пасмурную погоду, а также при ветре 12 м/с и более поправка равна нулю.
  • P - Атмосферное давление - приведенное к уровню моря атмосферное давление.
  • Po - Атмосферное давление - измеренное на уровне метеостанции атмосферное давление.
  • Tmin - Минимальная температура - минимум температуры воздуха на высоте 2 м над землей.
  • Tmax - Максимальная температура - максимум температуры воздуха на высоте 2 м над землей.
  • R - Количество осадков - Количество выпавших осадков за период времени, мм. При наведении курсора мыши на число - период времени, за который выпало указанное количество осадков.
  • R24 - Количество осадков - Количество выпавших осадков за 24 часа, мм.
  • S - Снежный покров - Высота снежного покрова, см. При наведении курсора мыши на число - состояние снежного покрова и степень покрытия местности в баллах.